1494367200.74,6997,12.75,72592.8,-14.81,-15.85,-15.89,0,*51
1494367202.0,6998,12.81,72598.0,-14.81,-15.89,-15.89,0,*52
1494367203.25,6999,12.81,72596.8,-14.81,-15.85,-15.85,0,*53
1494367204.51,7000,12.81,72598.0,-14.81,-15.85,-15.85,0,*5B
1494367205.74,7001,12.81,72596.0,-14.81,-15.99,-15.85,0,*57
1494367207.0,7002,12.81,72596.3,-14.81,-15.85,-15.85,0,*59
1494367208.25,7003,12.75,72590.8,-14.81,-15.85,-15.89,0,*54
1494367209.53,7004,12.81,72598.0,-14.83,-15.85,-15.89,0,*51
1494367210.79,7005,12.81,72594.8,-14.81,-15.89,-15.89,0,*5E
1494367212.05,7006,12.81,72598.5,-14.81,-15.89,-15.85,0,*51
1494367213.3,7007,12.75,72594.5,-14.81,-15.89,-15.85,0,*50
1494367214.56,7008,12.75,72592.3,-14.81,-15.89,-15.85,0,*5F
1494367215.82,7009,12.81,72596.5,-14.81,-15.89,-15.85,0,*5E
1494367217.08,7010,12.81,72598.3,-14.81,-15.85,-15.85,0,*5A
1494367218.31,7011,12.81,72600.8,-14.81,-15.85,-15.99,0,*56
1494367219.56,7012,12.81,72592.5,-14.81,-15.89,-15.85,0,*54
1494367220.85,7013,12.81,72590.3,-14.83,-15.85,-15.85,0,*5B
1494367222.1,7014,12.81,72592.0,-14.81,-15.89,-15.85,0,*52
1494367223.38,7015,12.81,72596.3,-14.83,-15.89,-15.89,0,*5D
1494367224.64,7016,12.81,72594.5,-14.83,-15.89,-15.75,0,*5D
1494367225.9,7017,12.81,72594.5,-14.81,-15.89,-15.89,0,*5D
1494367227.18,7018,12.81,72592.3,-14.83,-15.89,-15.85,0,*5C
1494367228.44,7019,12.81,72590.8,-14.81,-15.89,-15.85,0,*5F
1494367229.72,7020,12.75,72592.3,-14.83,-15.89,-15.89,0,*5B
1494367230.98,7021,12.81,72596.0,-14.81,-15.89,-15.85,0,*54
1494367232.25,7022,12.81,72596.3,-14.83,-15.89,-15.89,0,*59
1494367233.51,7023,12.81,72594.5,-14.83,-15.89,-15.99,0,*59
1494367234.76,7024,12.81,72594.5,-14.81,-15.89,-15.89,0,*5D
1494367236.04,7025,12.75,72594.0,-14.83,-15.89,-15.89,0,*5E
1494367237.32,7026,12.75,72592.8,-14.83,-15.85,-15.89,0,*51
1494367238.58,7027,12.75,72592.0,-14.81,-15.89,-15.89,0,*5E
1494367239.8,7028,12.81,72592.5,-14.83,-15.99,-15.99,0,*53
1494367241.06,7029,12.81,72598.0,-14.81,-15.85,-15.89,0,*5C
1494367242.34,7030,12.81,72596.3,-14.83,-15.89,-15.89,0,*5A
1494367243.62,7031,12.75,72596.3,-14.83,-15.85,-15.89,0,*57
1494367244.87,7032,12.75,72594.8,-14.81,-15.85,-15.89,0,*56
1494367246.15,7033,12.81,72592.8,-14.83,-15.85,-15.85,0,*59
1494367247.41,7034,12.81,72592.8,-14.81,-15.85,-15.85,0,*5C
1494367248.69,7035,12.81,72592.3,-14.83,-15.85,-15.85,0,*5F
1494367249.93,7036,12.81,72592.0,-14.81,-15.75,-15.85,0,*51
1494367251.18,7037,12.75,72588.3,-14.83,-15.85,-15.75,0,*52
1494367252.47,7038,12.81,72596.8,-14.83,-15.85,-15.85,0,*52
1494367253.72,7039,12.75,72594.0,-14.83,-15.85,-15.75,0,*5C
1494367254.96,7040,12.81,72594.0,-14.83,-15.75,-15.75,0,*5D
1494367256.21,7041,12.81,72596.5,-14.81,-15.85,-15.85,0,*5E
1494367257.45,7042,12.81,72592.5,-14.83,-15.75,-15.75,0,*5F
1494367258.73,7043,12.81,72592.5,-14.83,-15.85,-15.85,0,*5E
1494367259.99,7044,12.81,72594.5,-14.83,-15.85,-15.75,0,*56
1494367261.25,7045,12.81,72596.3,-14.83,-15.75,-15.85,0,*57
1494367262.5,7046,12.75,72594.3,-14.83,-15.75,-15.85,0,*54
1494367263.74,7047,12.81,72594.0,-14.83,-15.75,-15.75,0,*5A
1494367264.99,7048,12.81,72594.3,-14.83,-15.85,-15.75,0,*5A
1494367266.25,7049,12.81,72592.5,-14.83,-15.75,-15.85,0,*5B
1494367267.49,7050,12.81,72596.3,-14.83,-15.75,-15.75,0,*5C
1494367268.72,7051,12.75,72592.5,-14.83,-15.75,-15.75,0,*5D
1494367269.95,7052,12.81,72594.5,-14.83,-15.75,-15.75,0,*5E
1494367271.17,7053,12.81,72594.8,-14.81,-15.75,-15.75,0,*5D
1494367272.4,7054,12.81,72596.5,-14.83,-15.75,-15.75,0,*58
1494367273.66,7055,12.81,72594.0,-14.83,-15.85,-15.75,0,*56
1494367274.89,7056,12.81,72598.0,-14.83,-15.75,-15.75,0,*5A
1494367276.15,7057,12.81,72596.5,-14.83,-15.85,-15.75,0,*54
1494367277.4,7058,12.81,72596.8,-14.83,-15.85,-15.75,0,*5B
1494367278.66,7059,12.75,72592.0,-14.83,-15.85,-15.75,0,*5A
1494367279.9,7060,12.75,72592.3,-14.83,-15.75,-15.75,0,*5F
1494367281.13,7061,12.75,72596.0,-14.83,-15.75,-15.75,0,*5E
1494367282.34,7062,12.75,72596.0,-14.81,-15.75,-15.75,0,*5F
1494367283.57,7063,12.75,72594.5,-14.83,-15.75,-15.75,0,*5C
1494367284.81,7064,12.75,72596.3,-14.83,-15.75,-15.71,0,*5F
1494367286.06,7065,12.75,72596.8,-14.83,-15.85,-15.75,0,*55
1494367287.32,7066,12.75,72596.5,-14.83,-15.75,-15.85,0,*56
1494367288.56,7067,12.75,72598.5,-14.83,-15.75,-15.75,0,*58
1494367289.79,7068,12.81,72598.5,-14.83,-15.75,-15.75,0,*57
1494367291.03,7069,12.81,72600.0,-14.83,-15.75,-15.75,0,*56
1494367292.24,7070,12.81,72600.5,-14.81,-15.75,-15.75,0,*5C
1494367293.47,7071,12.81,72600.5,-14.83,-15.75,-15.75,0,*5F
1494367294.73,7072,12.75,72596.8,-14.83,-15.85,-15.75,0,*53
1494367295.96,7073,12.81,72596.3,-14.83,-15.75,-15.75,0,*5D
1494367297.2,7074,12.75,72596.5,-14.83,-15.75,-15.75,0,*5A
1494367298.43,7075,12.81,72598.8,-14.83,-15.75,-15.75,0,*5B
1494367299.66,7076,12.81,72596.3,-14.83,-15.75,-15.75,0,*58
1494367300.92,7077,12.81,72598.8,-14.83,-15.75,-15.85,0,*56
1494367302.16,7078,12.81,72598.0,-14.83,-15.75,-15.75,0,*56
1494367303.39,7079,12.81,72596.8,-14.83,-15.75,-15.75,0,*57
1494367304.62,7080,12.81,72596.5,-14.83,-15.75,-15.75,0,*51
1494367305.86,7081,12.81,72596.8,-14.83,-15.75,-15.75,0,*50
1494367307.12,7082,12.75,72598.0,-14.83,-15.85,-15.75,0,*5C
1494367308.35,7083,12.81,72598.5,-14.83,-15.75,-15.75,0,*52
1494367309.58,7084,12.75,72592.8,-14.83,-15.75,-15.75,0,*55
1494367310.82,7085,12.81,72598.5,-14.83,-15.75,-15.75,0,*54
1494367312.05,7086,12.81,72596.8,-14.83,-15.75,-15.75,0,*57
1494367313.29,7087,12.75,72592.3,-14.83,-15.75,-15.75,0,*56
1494367314.52,7088,12.75,72594.3,-14.83,-15.75,-15.75,0,*59
1494367315.78,7089,12.75,72592.5,-14.83,-15.75,-15.85,0,*57
1494367317.01,7090,12.75,72594.0,-14.83,-15.75,-15.75,0,*50
1494367318.25,7091,12.81,72598.0,-14.83,-15.75,-15.75,0,*51
1494367319.48,7092,12.81,72596.0,-14.83,-15.75,-15.75,0,*52
1494367320.72,7093,12.81,72598.0,-14.83,-15.75,-15.75,0,*53
1494367321.95,7094,12.75,72598.3,-14.83,-15.75,-15.75,0,*54
1494367323.16,7095,12.75,72598.3,-14.81,-15.75,-15.75,0,*57
1494367324.39,7096,12.75,72598.0,-14.81,-15.85,-15.75,0,*5B
1494367325.63,7097,12.75,72596.0,-14.83,-15.75,-15.75,0,*57
1494367326.86,7098,12.75,72598.3,-14.83,-15.75,-15.75,0,*58
1494367328.1,7099,12.75,72598.3,-14.83,-15.75,-15.75,0,*59
1494367329.36,7100,12.75,72598.3,-14.85,-15.89,-15.81,0,*56
1494367330.61,7101,12.75,72598.0,-14.85,-15.81,-15.81,0,*5F
1494367331.87,7102,12.81,72598.5,-14.83,-15.85,-15.75,0,*55
1494367333.13,7103,12.75,72596.5,-14.83,-15.75,-15.85,0,*54
1494367334.36,7104,12.75,72594.0,-14.83,-15.75,-15.75,0,*5C
1494367335.6,7105,12.75,72598.0,-14.83,-15.75,-15.75,0,*5D
1494367336.85,7106,12.81,72598.3,-14.83,-15.75,-15.85,0,*51
1494367338.14,7107,12.81,72596.5,-14.83,-15.85,-15.85,0,*5F
1494367339.39,7108,12.75,72596.3,-14.81,-15.85,-15.85,0,*52
1494367340.65,7109,12.75,72596.5,-14.85,-15.89,-15.81,0,*5F
1494367341.91,7110,12.81,72596.5,-14.83,-15.75,-15.85,0,*56
1494367343.17,7111,12.75,72592.5,-14.83,-15.75,-15.85,0,*57
1494367344.4,7112,12.75,72594.5,-14.83,-15.75,-15.75,0,*5B
1494367345.66,7113,12.75,72594.5,-14.83,-15.75,-15.85,0,*55
1494367346.92,7114,12.75,72594.5,-14.83,-15.85,-15.75,0,*52
1494367348.2,7115,12.75,72594.8,-14.83,-15.85,-15.85,0,*5C
1494367349.46,7116,12.75,72596.3,-14.83,-15.75,-15.85,0,*50
1494367350.74,7117,12.75,72592.0,-14.83,-15.85,-15.85,0,*5E
1494367351.99,7118,12.75,72588.3,-14.85,-15.81,-15.89,0,*5F
1494367353.25,7119,12.81,72592.0,-14.85,-15.89,-15.81,0,*5E
1494367354.51,7120,12.81,72594.8,-14.85,-15.81,-15.81,0,*5C
1494367355.77,7121,12.75,72590.5,-14.83,-15.75,-15.85,0,*54
1494367357.03,7122,12.75,72588.3,-14.83,-15.85,-15.75,0,*57
1494367358.31,7123,12.75,72590.3,-14.83,-15.85,-15.85,0,*59
1494367359.57,7124,12.75,72584.5,-14.83,-15.89,-15.75,0,*5D
1494367360.82,7125,12.75,72584.3,-14.83,-15.85,-15.75,0,*50
1494367362.08,7126,12.81,72592.0,-14.83,-15.75,-15.85,0,*53
1494367363.33,7127,12.75,72588.8,-14.85,-15.81,-15.89,0,*53
1494367364.59,7128,12.75,72588.0,-14.85,-15.89,-15.89,0,*54
1494367365.85,7129,12.75,72588.0,-14.85,-15.81,-15.81,0,*55
1494367367.11,7130,12.75,72594.0,-14.85,-15.89,-15.81,0,*55
1494367368.37,7131,12.75,72592.8,-14.85,-15.89,-15.81,0,*54
1494367369.63,7132,12.75,72594.5,-14.83,-15.75,-15.85,0,*56
1494367370.88,7133,12.81,72592.8,-14.85,-15.89,-15.89,0,*5E
1494367372.14,7134,12.75,72594.8,-14.85,-15.81,-15.89,0,*51
1494367373.39,7135,12.75,72592.0,-14.85,-15.81,-15.81,0,*58
1494367374.62,7136,12.75,72594.5,-14.85,-15.81,-15.95,0,*5E
1494367375.86,7137,12.81,72592.0,-14.85,-15.89,-15.95,0,*57
1494367377.12,7138,12.75,72586.8,-14.85,-15.89,-15.89,0,*55
1494367378.37,7139,12.75,72574.3,-14.85,-15.89,-15.89,0,*54
1494367379.64,7140,12.75,72576.8,-14.89,-15.89,-15.89,0,*56
1494367380.88,7141,12.75,72586.8,-14.89,-15.89,-15.95,0,*5A
1494367382.11,7142,12.75,72590.8,-14.85,-15.89,-16.03,0,*59
1494367383.34,7143,12.75,72580.8,-14.85,-15.95,-15.89,0,*54
1494367384.54,7144,12.75,72580.8,-14.85,-16.03,-15.95,0,*52
1494367385.8,7145,12.75,72582.3,-14.85,-15.89,-15.89,0,*5F
1494367387.03,7146,12.75,72586.3,-14.85,-15.95,-15.89,0,*51
1494367388.24,7147,12.75,72580.5,-14.85,-15.95,-15.95,0,*5D
1494367389.45,7148,12.75,72586.3,-14.89,-15.95,-15.95,0,*5E
1494367390.66,7149,12.75,72580.8,-14.85,-15.95,-15.95,0,*53
1494367391.87,7150,12.75,72586.5,-14.89,-15.95,-15.95,0,*57
1494367393.11,7151,12.75,72584.3,-14.89,-15.95,-15.89,0,*5B
1494367394.34,7152,12.75,72584.5,-14.89,-16.03,-15.89,0,*54
1494367395.57,7153,12.75,72584.8,-14.85,-16.03,-15.89,0,*59
1494367396.78,7154,12.75,72586.5,-14.85,-15.95,-16.03,0,*53
1494367397.99,7155,12.75,72596.8,-14.89,-15.95,-15.95,0,*52
1494367399.19,7156,12.75,72586.3,-14.85,-16.03,-16.03,0,*5D
1494367400.4,7157,12.75,72586.5,-14.85,-15.95,-15.95,0,*5C
1494367401.61,7158,12.75,72586.3,-14.89,-15.95,-16.03,0,*53
1494367402.83,7159,12.75,72588.8,-14.89,-15.95,-15.95,0,*5E
1494367404.03,7160,12.75,72592.0,-14.85,-15.95,-16.03,0,*54
1494367405.24,7161,12.75,72592.3,-14.85,-15.95,-15.95,0,*59
1494367406.45,7162,12.75,72590.0,-14.89,-16.03,-15.95,0,*5A
1494367407.68,7163,12.75,72590.8,-14.85,-15.95,-15.89,0,*56
1494367408.89,7164,12.75,72592.8,-14.89,-15.95,-15.95,0,*50
1494367410.1,7165,12.75,72590.8,-14.85,-15.95,-15.95,0,*5D
1494367411.32,7166,12.75,72588.0,-14.89,-15.95,-15.95,0,*52
1494367412.52,7167,12.75,72588.0,-14.85,-15.95,-15.95,0,*5F
1494367413.76,7168,12.75,72590.8,-14.89,-15.81,-16.03,0,*55
1494367414.96,7169,12.75,72588.0,-14.85,-15.95,-15.95,0,*51
1494367416.2,7170,12.75,72582.5,-14.85,-15.95,-15.81,0,*5C
1494367417.43,7171,12.75,72584.5,-14.89,-15.95,-15.89,0,*59
1494367418.7,7172,12.75,72588.3,-14.89,-15.89,-15.89,0,*57
1494367419.93,7173,12.75,72592.8,-14.89,-15.95,-15.89,0,*5B
1494367421.2,7174,12.75,72602.0,-14.89,-15.89,-15.89,0,*51
1494367422.43,7175,12.75,72592.0,-14.89,-15.89,-15.95,0,*5D
1494367423.7,7176,12.75,72594.0,-14.89,-15.89,-15.89,0,*53
1494367424.96,7177,12.75,72590.5,-14.89,-15.89,-15.81,0,*5A
1494367426.19,7178,12.75,72592.8,-14.85,-15.95,-15.89,0,*5C
1494367427.45,7179,12.75,72594.0,-14.85,-15.89,-15.89,0,*50
1494367428.71,7180,12.75,72598.3,-14.85,-15.81,-15.81,0,*56
1494367429.97,7181,12.75,72592.5,-14.89,-15.89,-15.89,0,*5B
1494367431.24,7182,12.75,72594.0,-14.89,-15.89,-15.81,0,*50
1494367432.5,7183,12.75,72596.8,-14.89,-15.89,-15.89,0,*59
1494367433.76,7184,12.75,72598.5,-14.89,-15.89,-15.89,0,*5E
1494367435.03,7185,12.75,72594.8,-14.89,-15.89,-15.89,0,*5F
1494367436.28,7186,12.75,72592.8,-14.85,-15.89,-15.89,0,*50
1494367437.55,7187,12.75,72594.5,-14.89,-15.81,-15.81,0,*5D
1494367438.81,7188,12.75,72592.8,-14.89,-15.89,-15.89,0,*52
1494367440.07,7189,12.75,72594.3,-14.89,-15.81,-15.89,0,*5B
1494367441.32,7190,12.75,72594.3,-14.85,-15.81,-15.89,0,*5F
1494367442.58,7191,12.75,72594.8,-14.85,-15.89,-15.81,0,*5E
1494367443.84,7192,12.75,72590.8,-14.85,-15.89,-15.81,0,*5D
1494367445.11,7193,12.75,72586.5,-14.89,-15.81,-15.81,0,*58
1494367446.37,7194,12.75,72580.8,-14.89,-15.89,-15.81,0,*57
1494367447.64,7195,12.75,72578.0,-14.89,-15.89,-15.89,0,*5E
1494367448.9,7196,12.81,72594.3,-14.89,-15.81,-15.81,0,*5D
1494367450.16,7197,12.75,72590.3,-14.89,-15.81,-15.89,0,*54
1494367451.42,7198,12.75,72584.0,-14.89,-15.81,-15.81,0,*53
1494367452.68,7199,12.75,72582.0,-14.85,-15.81,-15.89,0,*56
1494367453.94,7200,12.75,72578.0,-14.89,-15.81,-15.81,0,*51
1494367455.2,7201,12.75,72576.8,-14.89,-15.89,-15.89,0,*50
1494367456.46,7202,12.75,72584.0,-14.89,-15.81,-15.81,0,*53
1494367457.73,7203,12.75,72586.8,-14.89,-15.81,-15.81,0,*52
1494367458.99,7204,12.75,72584.0,-14.89,-15.81,-15.89,0,*5D
1494367460.25,7205,12.75,72590.3,-14.89,-15.89,-15.81,0,*5C
1494367461.51,7206,12.75,72586.5,-14.85,-15.81,-15.89,0,*53
1494367462.77,7207,12.75,72584.3,-14.89,-15.81,-15.81,0,*56
1494367464.03,7208,12.75,72580.0,-14.89,-15.81,-15.81,0,*59
1494367465.3,7209,12.75,72590.5,-14.89,-15.81,-15.81,0,*58
1494367466.58,7210,12.75,72590.3,-14.91,-15.85,-15.85,0,*59
1494367467.84,7211,12.75,72588.5,-14.89,-15.81,-15.81,0,*51
1494367469.1,7212,12.75,72590.5,-14.85,-15.81,-15.89,0,*56
1494367470.35,7213,12.75,72594.8,-14.85,-15.89,-15.89,0,*5F
1494367471.62,7214,12.75,72588.8,-14.89,-15.81,-15.81,0,*54
1494367472.88,7215,12.75,72592.3,-14.89,-15.81,-15.81,0,*55
1494367474.14,7216,12.75,72594.0,-14.89,-15.81,-15.81,0,*56
1494367475.41,7217,12.75,72592.8,-14.89,-15.81,-15.81,0,*57
1494367476.67,7218,12.75,72588.3,-14.89,-15.81,-15.81,0,*58
1494367477.93,7219,12.75,72590.3,-14.89,-15.81,-15.81,0,*59
1494367479.2,7220,12.75,72588.3,-14.89,-15.89,-15.81,0,*5B
1494367480.46,7221,12.75,72588.5,-14.89,-15.81,-15.81,0,*52
1494367481.73,7222,12.75,72584.0,-14.89,-15.89,-15.81,0,*59
1494367482.99,7223,12.75,72592.3,-14.89,-15.81,-15.89,0,*58
1494367484.25,7224,12.75,72596.8,-14.89,-15.81,-15.81,0,*57
1494367485.52,7225,12.75,72596.0,-14.89,-15.81,-15.81,0,*56
1494367486.78,7226,12.75,72594.8,-14.89,-15.81,-15.81,0,*55
1494367488.04,7227,12.75,72594.3,-14.89,-15.81,-15.81,0,*54
1494367489.3,7228,12.75,72594.5,-14.85,-15.81,-15.81,0,*57
1494367490.56,7229,12.75,72588.3,-14.89,-15.81,-15.81,0,*5A
1494367491.83,7230,12.75,72588.5,-14.89,-15.81,-15.81,0,*52
1494367493.09,7231,12.75,72590.0,-14.89,-15.81,-15.81,0,*53
1494367494.36,7232,12.75,72588.8,-14.89,-15.89,-15.81,0,*58
1494367495.62,7233,12.75,72592.0,-14.89,-15.81,-15.81,0,*51
1494367496.88,7234,12.75,72592.5,-14.89,-15.81,-15.81,0,*56
1494367498.15,7235,12.75,72588.8,-14.89,-15.89,-15.81,0,*5F
1494367499.41,7236,12.75,72588.0,-14.89,-15.81,-15.81,0,*54
1494367500.67,7237,12.75,72590.3,-14.89,-15.81,-15.89,0,*5D
1494367501.93,7238,12.75,72588.8,-14.89,-15.81,-15.81,0,*5A
1494367503.19,7239,12.75,72592.8,-14.85,-15.81,-15.81,0,*57
1494367504.45,7240,12.75,72590.3,-14.89,-15.81,-15.81,0,*55
1494367505.72,7241,12.75,72588.8,-14.89,-15.89,-15.89,0,*54
1494367506.97,7242,12.75,72590.3,-14.85,-15.81,-15.81,0,*5B
1494367508.23,7243,12.75,72588.5,-14.89,-15.81,-15.89,0,*5E
1494367509.5,7244,12.75,72592.5,-14.89,-15.81,-15.81,0,*51
1494367510.76,7245,12.75,72586.8,-14.89,-15.89,-15.81,0,*58
1494367512.02,7246,12.75,72582.3,-14.85,-15.81,-15.81,0,*5F
1494367513.28,7247,12.75,72582.0,-14.89,-15.81,-15.81,0,*52
1494367514.54,7248,12.75,72580.8,-14.85,-15.81,-15.81,0,*51
1494367515.8,7249,12.75,72582.8,-14.89,-15.81,-15.81,0,*5C
1494367517.07,7250,12.75,72574.3,-14.89,-15.81,-15.81,0,*54
1494367518.33,7251,12.75,72580.0,-14.89,-15.81,-15.81,0,*55
1494367519.59,7252,12.75,72584.3,-14.89,-15.81,-15.89,0,*5E
1494367520.85,7253,12.75,72584.8,-14.89,-15.81,-15.81,0,*57
1494367522.11,7254,12.75,72586.3,-14.89,-15.81,-15.89,0,*58
1494367523.37,7255,12.75,72586.8,-14.89,-15.81,-15.81,0,*51
1494367524.63,7256,12.75,72584.5,-14.85,-15.81,-15.89,0,*56
1494367525.89,7257,12.75,72588.0,-14.89,-15.81,-15.81,0,*53
1494367527.16,7258,12.75,72588.5,-14.89,-15.81,-15.81,0,*5C
1494367528.41,7259,12.75,72594.3,-14.85,-15.81,-15.81,0,*51
1494367529.67,7260,12.75,72588.8,-14.89,-15.81,-15.89,0,*5F
1494367530.94,7261,12.75,72584.0,-14.89,-15.81,-15.81,0,*56
1494367532.2,7262,12.75,72584.0,-14.89,-15.81,-15.81,0,*55
1494367533.46,7263,12.75,72586.3,-14.89,-15.89,-15.81,0,*5C
1494367534.73,7264,12.75,72588.8,-14.89,-15.81,-15.81,0,*53
1494367535.99,7265,12.75,72580.0,-14.85,-15.89,-15.81,0,*56
1494367537.25,7266,12.75,72580.8,-14.89,-15.81,-15.81,0,*51
1494367538.52,7267,12.75,72588.5,-14.89,-15.81,-15.81,0,*50
1494367539.78,7268,12.75,72592.8,-14.89,-15.81,-15.81,0,*5F
1494367541.04,7269,12.75,72588.8,-14.89,-15.81,-15.89,0,*56
1494367542.3,7270,12.75,72578.5,-14.89,-15.81,-15.81,0,*56
1494367543.56,7271,12.75,72580.0,-14.89,-15.81,-15.81,0,*57
1494367544.83,7272,12.75,72586.0,-14.89,-15.81,-15.81,0,*54
1494367546.09,7273,12.75,72586.5,-14.89,-15.81,-15.81,0,*55
1494367547.35,7274,12.75,72590.0,-14.89,-15.81,-15.81,0,*52
1494367548.62,7275,12.75,72584.8,-14.89,-15.89,-15.89,0,*53
1494367549.88,7276,12.75,72578.3,-14.89,-15.81,-15.81,0,*50
1494367551.15,7277,12.75,72582.5,-14.89,-15.89,-15.81,0,*59
1494367552.41,7278,12.75,72582.3,-14.89,-15.81,-15.81,0,*5E
1494367553.67,7279,12.75,72582.8,-14.89,-15.81,-15.81,0,*5F
1494367554.94,7280,12.75,72586.3,-14.89,-15.89,-15.81,0,*51
1494367556.21,7281,12.75,72586.8,-14.89,-15.89,-15.81,0,*50
1494367557.47,7282,12.75,72584.3,-14.89,-15.89,-15.81,0,*53
1494367558.74,7283,12.75,72586.3,-14.89,-15.81,-15.81,0,*5A
1494367560.0,7284,12.75,72582.5,-14.89,-15.81,-15.81,0,*5D
1494367561.26,7285,12.75,72580.5,-14.85,-15.81,-15.81,0,*50
1494367562.51,7286,12.75,72584.5,-14.85,-15.81,-15.81,0,*53
1494367563.77,7287,12.75,72582.5,-14.89,-15.81,-15.89,0,*56
1494367565.03,7288,12.75,72580.0,-14.85,-15.89,-15.81,0,*55
1494367566.3,7289,12.75,72580.0,-14.89,-15.81,-15.81,0,*50
1494367567.56,7290,12.75,72586.5,-14.89,-15.81,-15.81,0,*58
1494367568.82,7291,12.75,72584.0,-14.89,-15.81,-15.81,0,*59
1494367570.09,7292,12.75,72586.8,-14.89,-15.89,-15.81,0,*52
1494367571.35,7293,12.75,72588.3,-14.85,-15.81,-15.81,0,*57
1494367572.61,7294,12.75,72590.8,-14.89,-15.89,-15.81,0,*54
1494367573.88,7295,12.75,72592.0,-14.89,-15.81,-15.81,0,*5D
1494367575.14,7296,12.75,72586.5,-14.85,-15.81,-15.81,0,*52
1494367576.39,7297,12.75,72582.0,-14.85,-15.81,-15.81,0,*53
1494367577.66,7298,12.75,72580.0,-14.89,-15.81,-15.81,0,*50
1494367578.89,7299,12.75,72582.5,-14.89,-15.81,-15.75,0,*5A
1494367580.13,7300,12.75,72586.0,-14.89,-15.81,-15.75,0,*5B
1494367581.37,7301,12.75,72578.8,-14.89,-15.81,-15.75,0,*5A
1494367582.6,7302,12.75,72576.5,-14.85,-15.81,-15.75,0,*55
1494367583.83,7303,12.75,72584.5,-14.85,-15.81,-15.75,0,*54
1494367585.06,7304,12.75,72592.3,-14.85,-15.81,-15.75,0,*53
1494367586.28,7305,12.75,72578.0,-14.89,-15.75,-15.75,0,*55
1494367587.49,7306,12.75,72572.3,-14.85,-15.75,-15.75,0,*5A
1494367588.7,7307,12.75,72572.3,-14.85,-15.75,-15.75,0,*5B
1494367589.92,7308,12.75,72572.5,-14.89,-15.75,-15.75,0,*58
1494367591.13,7309,12.75,72572.5,-14.89,-15.75,-15.75,0,*59
1494367592.35,7310,12.75,72580.8,-14.89,-15.75,-15.75,0,*51
1494367593.57,7311,12.75,72584.3,-14.89,-15.75,-15.75,0,*50
1494367594.78,7312,12.75,72578.5,-14.89,-15.75,-15.71,0,*57
1494367595.99,7313,12.75,72574.0,-14.85,-15.75,-15.75,0,*5E
1494367597.2,7314,12.75,72574.5,-14.85,-15.75,-15.75,0,*59
1494367598.42,7315,12.75,72576.5,-14.85,-15.75,-15.75,0,*58
1494367599.63,7316,12.75,72574.8,-14.85,-15.75,-15.75,0,*5B
1494367600.84,7317,12.75,72580.0,-14.85,-15.75,-15.71,0,*5E
1494367602.05,7318,12.75,72582.0,-14.89,-15.75,-15.75,0,*59
1494367603.27,7319,12.75,72582.0,-14.85,-15.75,-15.75,0,*54
1494367604.48,7320,12.75,72588.8,-14.89,-15.71,-15.75,0,*56
1494367605.7,7321,12.75,72582.8,-14.89,-15.75,-15.75,0,*53
1494367606.91,7322,12.75,72584.8,-14.89,-15.75,-15.75,0,*50
1494367608.12,7323,12.75,72590.0,-14.85,-15.75,-15.71,0,*59
1494367609.33,7324,12.75,72586.5,-14.85,-15.75,-15.75,0,*5A
1494367610.55,7325,12.75,72588.0,-14.89,-15.75,-15.75,0,*57
1494367611.77,7326,12.75,72584.8,-14.89,-15.75,-15.75,0,*54
1494367613.0,7327,12.75,72590.3,-14.89,-15.81,-15.75,0,*5E
1494367614.24,7328,12.75,72588.3,-14.85,-15.81,-15.75,0,*5D
1494367615.45,7329,12.75,72590.3,-14.85,-15.75,-15.75,0,*57
1494367616.66,7330,12.75,72588.8,-14.89,-15.75,-15.75,0,*53
1494367617.88,7331,12.75,72588.3,-14.89,-15.75,-15.71,0,*56
1494367619.09,7332,12.75,72588.0,-14.85,-15.75,-15.75,0,*5D
1494367620.3,7333,12.75,72590.3,-14.85,-15.75,-15.71,0,*58
1494367621.51,7334,12.75,72590.8,-14.89,-15.71,-15.75,0,*53
1494367622.72,7335,12.75,72584.3,-14.85,-15.71,-15.75,0,*5E
1494367623.93,7336,12.75,72576.5,-14.85,-15.75,-15.75,0,*59
1494367625.15,7337,12.75,72578.0,-14.89,-15.75,-15.75,0,*54
1494367626.36,7338,12.75,72586.5,-14.85,-15.71,-15.75,0,*53
1494367627.57,7339,12.75,72590.3,-14.89,-15.71,-15.75,0,*5E
1494367628.78,7340,12.75,72584.8,-14.85,-15.75,-15.71,0,*5C
1494367630.0,7341,12.75,72580.3,-14.89,-15.75,-15.75,0,*55
1494367631.21,7342,12.75,72578.3,-14.85,-15.71,-15.75,0,*5E
1494367632.42,7343,12.75,72572.3,-14.89,-15.75,-15.75,0,*57
1494367633.63,7344,12.75,72576.3,-14.85,-15.75,-15.75,0,*5C
1494367634.85,7345,12.75,72582.8,-14.85,-15.75,-15.75,0,*5D
1494367636.05,7346,12.75,72586.0,-14.85,-15.71,-15.75,0,*5A
1494367637.26,7347,12.75,72584.0,-14.85,-15.75,-15.75,0,*5F
1494367638.48,7348,12.75,72588.3,-14.89,-15.75,-15.75,0,*5C
1494367639.7,7349,12.75,72590.5,-14.89,-15.75,-15.71,0,*59
1494367640.91,7350,12.75,72588.5,-14.89,-15.75,-15.75,0,*55
1494367642.12,7351,12.75,72584.0,-14.85,-15.75,-15.75,0,*58
1494367643.34,7352,12.75,72584.8,-14.85,-15.75,-15.75,0,*5B
1494367644.55,7353,12.75,72590.0,-14.85,-15.75,-15.75,0,*5A
1494367645.75,7354,12.75,72590.5,-14.85,-15.71,-15.75,0,*59
1494367646.97,7355,12.75,72588.8,-14.85,-15.75,-15.75,0,*5C
1494367648.18,7356,12.75,72588.0,-14.85,-15.75,-15.71,0,*5B
1494367649.38,7357,12.75,72590.3,-14.81,-15.71,-15.71,0,*5A
1494367650.59,7358,12.75,72586.8,-14.85,-15.75,-15.75,0,*51
1494367651.8,7359,12.75,72582.8,-14.85,-15.75,-15.75,0,*50
1494367653.01,7360,12.75,72586.5,-14.85,-15.75,-15.71,0,*5E
1494367654.23,7361,12.75,72584.3,-14.89,-15.71,-15.71,0,*57
1494367655.44,7362,12.75,72588.8,-14.85,-15.75,-15.75,0,*58
1494367656.65,7363,12.75,72588.0,-14.85,-15.71,-15.75,0,*5D
1494367657.86,7364,12.75,72586.0,-14.85,-15.75,-15.75,0,*5E
1494367659.07,7365,12.75,72584.3,-14.85,-15.75,-15.75,0,*5F
1494367660.28,7366,12.75,72584.8,-14.85,-15.75,-15.75,0,*5C
1494367661.49,7367,12.75,72582.8,-14.85,-15.75,-15.75,0,*5D
1494367662.7,7368,12.75,72586.0,-14.85,-15.71,-15.71,0,*52
1494367663.92,7369,12.75,72586.0,-14.83,-15.71,-15.67,0,*52
1494367665.13,7370,12.75,72590.8,-14.85,-15.71,-15.71,0,*5B
1494367666.36,7371,12.75,72590.0,-14.83,-15.71,-15.71,0,*5C
1494367667.56,7372,12.75,72584.5,-14.81,-15.71,-15.67,0,*5A
1494367668.79,7373,12.75,72588.3,-14.83,-15.71,-15.71,0,*5E
1494367670.01,7374,12.75,72586.5,-14.83,-15.71,-15.67,0,*5E
1494367671.22,7375,12.75,72588.8,-14.85,-15.75,-15.71,0,*5A
1494367672.43,7376,12.75,72590.0,-14.85,-15.71,-15.75,0,*59
1494367673.64,7377,12.75,72590.0,-14.85,-15.75,-15.71,0,*58
1494367674.85,7378,12.75,72590.3,-14.85,-15.71,-15.75,0,*57
1494367676.05,7379,12.75,72586.0,-14.85,-15.71,-15.71,0,*52
1494367677.26,7380,12.75,72588.5,-14.85,-15.75,-15.71,0,*50
1494367678.47,7381,12.75,72586.5,-14.85,-15.75,-15.71,0,*51
1494367679.7,7382,12.75,72582.3,-14.83,-15.67,-15.67,0,*50
1494367680.92,7383,12.75,72580.3,-14.83,-15.67,-15.67,0,*51
1494367682.14,7384,12.75,72576.0,-14.83,-15.67,-15.67,0,*56
1494367683.35,7385,12.75,72580.0,-14.85,-15.75,-15.75,0,*51
1494367684.56,7386,12.75,72584.0,-14.85,-15.75,-15.71,0,*56
1494367685.77,7387,12.75,72590.8,-14.85,-15.71,-15.71,0,*53
1494367686.98,7388,12.75,72594.8,-14.85,-15.75,-15.71,0,*58
1494367688.21,7389,12.75,72588.5,-14.83,-15.71,-15.71,0,*5B
1494367689.44,7390,12.75,72588.3,-14.83,-15.71,-15.71,0,*53
1494367690.66,7391,12.75,72592.0,-14.83,-15.71,-15.67,0,*55
1494367691.87,7392,12.75,72594.8,-14.81,-15.71,-15.71,0,*53
1494367693.1,7393,12.75,72592.3,-14.83,-15.71,-15.71,0,*50
1494367694.33,7394,12.75,72594.0,-14.83,-15.67,-15.71,0,*50
1494367695.55,7395,12.75,72594.0,-14.83,-15.67,-15.67,0,*56
1494367696.78,7396,12.75,72594.5,-14.83,-15.71,-15.71,0,*55